Regional Weather Roundup
Issued by NWS

Home | Current Version | Previous Version | Graphics & Text | Print | Product List | Glossary On
Versions: 1 2 3 4 5 6 7 8 9 10 11 12 13 14 15 16 17 18 19 20 21 22 23 24 25 26 27 28 29 30 31 32 33 34 35 36 37 38 39 40 41 42 43 44 45 46 47 48 49 50
000
ASUS43 KFSD 291610
RWRSD

WEATHER ROUNDUP FOR SOUTH DAKOTA
NATIONAL WEATHER SERVICE SIOUX FALLS SD
1100 AM CDT MON JUN 29 2015

NOTE: "FAIR" INDICATES FEW OR NO CLOUDS BELOW 12,000 FEET WITH NO
SIGNIFICANT WEATHER AND/OR OBSTRUCTIONS TO VISIBILITY.


SDZ001>005-009-010-012>017-291700-
NORTHWEST AND NORTH CENTRAL SOUTH DAKOTA

CITY           SKY/WX    TMP DP  RH WIND       PRES   REMARKS
BUFFALO          N/A     82  64  54 SW6       30.01F
FAITH            N/A     84  62  47 VRB3      30.04F
MOBRIDGE       SUNNY     81  61  50 NW8       29.97F
$$

SDZ012>016-024>037-041>051-057-063-072>074-291700-
SOUTHWEST AND SOUTH CENTRAL SOUTH DAKOTA

CITY           SKY/WX    TMP DP  RH WIND       PRES   REMARKS
RAPID CTY ARPT SUNNY     79  62  56 N10       30.09S
PIERRE         SUNNY     79  64  60 VRB5      29.99S
CUSTER         SUNNY     75  51  43 VRB7      30.25R
ELLSWORTH AFB  SUNNY     78  62  57 N10       30.09S
PHILIP         SUNNY     81  66  60 CALM      30.02F
PINE RIDGE     MOSUNNY   78  60  53 CALM      30.10S
SPEARFISH      FAIR      79  57  47 NW7       30.16R
WINNER         FAIR      81  56  42 N7        30.02F
$$

SDZ004>011-016>023-039-040-291700-
NORTHEAST SOUTH DAKOTA

CITY           SKY/WX    TMP DP  RH WIND       PRES   REMARKS
ABERDEEN       SUNNY     78  61  55 W9        29.94F
WATERTOWN      SUNNY     75  61  61 W10       29.94F
BROOKINGS      SUNNY     75  63  64 W10       29.96S
SISSETON         N/A     77  60  55 NW13      29.88F
$$

SDZ017-020-022-023-036>040-048>070-291700-
SOUTHEAST SOUTH DAKOTA

CITY           SKY/WX    TMP DP  RH WIND       PRES   REMARKS
SIOUX FALLS    CLOUDY    80  61  52 NW12      29.95S
HURON          SUNNY     77  62  59 NW12      29.96F HAZE
CHAMBERLAIN    SUNNY     76  58  52 NW8       30.00F
MITCHELL       SUNNY     78  63  59 NW9       29.97F HAZE
YANKTON        SUNNY     75  61  60 W10       29.96S
$$

ABBREVIATIONS USED IN REMARKS
   TC - TEMPERATURE IN CELSIUS
  WCI - WIND CHILL INDEX
   HX - HEAT INDEX
  VSB - VISIBILITY




USA.gov is the U.S. government's official web portal to all federal, state and local government web resources and services.